User: anonymous   Login
Location: *
(42.3442°N, 9.2072°E)
Time: 18:51:23
(UTC+00:00)
Language:

Cosmos 1174 - Orbit

View from above orbital plane
View from above orbital plane
View from above satellite
View from above satellite

Ground track
Ground track

The orbit data is extracted from the following two-line orbital elements,

1 11765U 80030A   21025.85100732  .00000340  00000-0  26012-4 0  9999
2 11765  66.0855 280.9987 0553651 233.8323 121.0353 14.40057522 94091
Epoch (UTC): 25 January 2021 20:25:27
Eccentricity: 0.0553651
inclination: 66.0855°
perigee height: 363 km
apogee height: 1153 km
right ascension of ascending node: 280.9987°
argument of perigee: 233.8323°
revolutions per day: 14.40057522
mean anomaly at epoch: 121.0353°
orbit number at epoch: 9409

The dashed part of the orbit path shows where the satellite is in the earth's shadow,  

DLR